[Date Prev][Date Next][Thread Prev][Thread Next][Date Index][Thread Index]

[jamsat-news:1596] jas2info #245



========================   最新情報   ==============================

        Last updated :6OCT2001  18:50(JST)   #245

==================================================================
   
  1)アマチュア通信衛星情報、FOシリーズの軌道要素、テレメトリ、QSOの
   状況等をまとめてみました.
   
   FO−29の2001年10月6日(土)の18:21(JST)のパスでは
  アナログ運用でした。 今日までの観測した。レメトリーと最終の分析結果を
  掲載しておきます。

AS25369C1   06OCT2001
18:22-18:32(JST)
FREQ. 435.802-.790MHz
                                                            91 8D 8C 8E 8C 
HI HI AE C7 88 55 00 D4 A5 CC 09 42 87 6F 40 68 95 92 9B 5B 90 8D 8C 8D 8B 
HI HI AE C7 88 55 00 D4 A5 CC 09 42 80 7E 1F 78 91 8E 94 81 91 8D 8C 8D 8B 
HI HI AE C7 88 55 00 D4 A5 CC 09 42 77 8C 0A 83 8D 8C 91 A4 91 8E 8C 8E 8B 
HI HI AE C7 88 55 00 D4 A5 CC 09 42 6D 95 0E 8D 6B 8A 8F 7B 91 8E 8C 8E 8B 
HI HI AE C7 88 55 00 D4 A5 CC 09 42 64 9C 01 87 8B 89 8F 8F 91 8E 8C 8E 8B 
HI HI AE C7 78 55 00 D4 A5 CC 09 42 5B 9F 01 88 8A 89 95 7A 91 8E 8C 8E 8B 
HI HI AE 07 88 55 00 D4 A5 CC 09 42 55 9F 01 85 8A 89 95 7F 91 8E 8C 8E 8B 
HI HI AE 07 88 55 00 D4 A5 CC 09 42 50 9C 06 84 8A 89 95 83 91 8E 8C 8E 8B 
HI HI AE 07 88 55 00 D4 A5 CC 09 42 4E 97 0C 82 8A 89 95 78 91 8E 8D 8E 8B 
HI HI AE 07 88 55 00 D4 A5 CC 09 42 4F 92 1C 78 8B 89 96 73 91 8E 8D 8E 8B 
HI HI AE 07 88 55 00 D4 A5 CC 09 42 52 8E 13 8D 8E 8B 98 7F 91 8E 8D 8E 8B 
HI HI AE 07 88 55 00 D4 A5 CC 09 42 54 8A       8A 8B 98    90 8F 8D 8E 8B 
HI HI AE 07 88 55 00 D4 A5 CC 09 42 59 87 1D 8B 8A 8E 98 73 91 8F 8D 8E 8B 

AS25329C   03OCT2001
19:20-19:33(JST)
Freq. 435.804-.787

HI HI AE C7 88 55 00 D4 50 30 09 4D 4A AF 66 63 9C 97 B0 6F 8F 8C 8F 91 8D 
HI HI AE C7 88 55 00 D4 50 30 09 4D 3C A4 59 63 9C 97 B0 78 8F 8C 8F 91 8D 
HI HI AE C7 88 55 00 D4 50 30 09 4D 32 94 59 63 9C 97 B0 74 8F 8C 8F 91 8D 
HI HI AE C7 88 55 00 D4 50 30 08 4D 2D 83 53 63 9C 97 AF 75 8F 8C 8F 91 8D 
HI HI AE C7 88 55 00 D4 50 30 09 4D 2F 70 26 75 96 92 98 7E 8F 8C 8F 91 8D 
HI HI AE C7 88 55 00 D4 50 30 09 4D 34 5F 0D 81 90 8D 93 71 8F 8C 8F 90 8D 
HI HI AE C7 88 55 00 D4 50 30 09 4D 3E 52 06 84 8D 8B 91 66 8F 8C 8F 90 8D 
HI HI AE C7 88 55 00 D4 50 30 09 4D 4B 4A 04 85 8B 8A 8F 83 8F 8C 8F 90 8D 
HI HI AE C7 88 55 00 D4 50 30 09 4D 59 4B 04 85 8B 89 95 7D 8F 8C 8F 90 8D
HI HI AE 07 88 55 00 D4 50 30 09 4D 5D 4A 01 87 8A 8A 95 7E 8F 8C 8F 91 8D 
HI HI AE 07 88 55 00 D4 50 30 09 4D 6F 50 06 83 8A 89 95 69 8F 8C 8F 91 8D
HI HI AE 07 88 55 00 D4 50 30 09 4D 76 59 0B 82 8A 77 95 5C 8F 8C 8F 91 8D 
HI HI AE 07 88 55 00 D4 50 30 09 4D 79 64 23 75 8B 8A 96 7B 8F 8D 8F 91 8D 
HI HI AE 07 88 55 00 D4 50 30 09 4D 78 70 45 63 8D 8B 97 5E 8F 8D 8F 91 8D 
HI HI AE 07 88 55 00 D4 50 30 09 4D 73 78 49 63 8D 8C 97 4E 8F 8D 90 91 8D
HI HI AE 07 88 55 00 D4 50 30 09 4D 6C 7D 47 63 8E 8C 97 59 8F 8D 90 91 8D 
HI HI AE C7 88 55 00 D4 51 30 09 4D 63 7D 4E 61 8E 8C 98 5E 8F 8D 90 91 8D  

AS25302C    01OCT2001
19:34-19:39(JST)
FREQ/  435.788-.787MHz
 
HI HI AE 07 88 55 00 D4 83 6D 09 43 4A 5A 32 6D 8C 8A 97 69 90 91 8E 8C 8C 
HI HI AE 07 88 55 00 D4 83 6D 09 43 4D 5B 58 5A 8E 8C 99 48 90 91 8E 8C 8C 
HI HI AE 07 88 55 00 D4 83 6D 09 43 4F 5C 5A 5A 8F 8D 9A 42 91 91 8E 8C 8C 
HI HI AE 07 88 55 00 D4 83 6D 09 43 50 5C 53 5E 8F 8D 9A 73 91 91 8E 8C 8C 
HI HI AE 07 88 55 00 D4 83 6D 09 43 50 5C 54 5D 90 8E 9B 9B 91 91 8E 8C 8C 
HI HI AE 07 88 55 00 D4 83 6D 09 43 4F 5C 50 5F 90 8E 9B 7E 
    
AS25262C  28SEP2001
20:23-20:37(JST)
FREQ. 435.805-.786MHz

HI HI AE C7 88 55 00 D4 2A BF 09 0D 90 51 53 63 9C 98 B0 83 8F 8D 91 92 8F
HI HI AE C7 88 55 00 D4 2A BF 09 0D 8F 51 52 63 9C 97 B0 84 8F 8D 91 92 8FI 
HI HI AE C7 88 55 00 D4 2A BF 09 9D 8C 48 52 63 9C 97 B0 63 8F 8D 91 92 8F 
HI HI AE C7 88 55 00 D4 2A BF 09 0D 86 41 52 63 9C 97 B0 6C 8F 8D 91 92 8F 
HI HI AE C7 88 55 00 D4 2A BF 09 0D 84 3A 52 63 9C 98 B0 85 8F 8D 92 92 8F 
HI HI AE C7 88 55 00 D4 2A BF 09 0D 7E 34 54 63 9C 97 B0 62 8F 8D 92 92 8F 
HI HI AE C7 88 55 00 D4 2A BF 09 0D 75 2F 55 63 9C 56 B0 60 8F 8D 92 92 8F 
HI HI AE C7 88 55 00 D4 2A BF 09 0D 71 2B 49 65 9C 97 A7 6D 8F 8D 92 92 8F 
HI HI AE C7 88 55 00 D4 2A BF 09 0D 68 29 55 65 9C 95 98 85 8F 8D 92 92 8E 
HI HI AE C7 88 55 00 D4 2A BF 09 0D 62 28 0C 83 8F 8D 93 7E 8F 8D 92 92 8E 
HI HI AE C7 88 55 00 D4 2A BF 09 0D 5A 29 06 85 8D 8B 91 68 8F 8E 92 92 8E 
HI HI AE C7 88 55 00 D4 2A BF 09 0D 5E 2D 02 85 8D 8A 95 65 8F 8E 93 92 8E 
HI HI AE C7 88 55 00 D4 2A BF 09 0D 6E                      8F 8E 93 92 8E 
HI HI AE C7 88 55 00 D4 2A BF 09 0D 47 3A 00 89 8A 89 95 7B 8F 8E 93 92 8E 
HI HI AE C7 88 55 00 D4 2A BF 09 0D 40 43 02 86 8A 89 95 5E 8E 8E 93 92 8E
HI HI AE 07 88 55 00 D4 3A BF 09 0D 3F 4D 09 83 8A 86 95    8F 8E 93 92 8E 
HI HI AE O7 88 55 00 D4 2A BF 09 0D 3C 59 1F 77 8B 8A 96 86 8F 8E 93 93 8E 
HI HI AE 07 87 55 00 D4 2A BF 09 0D 3C 66 46 64 8D 8B 98 5B 8F 8E 93 93 8E  
HI HI AE C7 88 55 00 D4 2A BF 09 0D 3C 68    59 8E 8C 99 5F 8F 8E 93 93 8E

 
------------------------ FO-29の軌道要素 ------------------------------        
 
  ■ 軌道要素1:「jamsat−keps:1039」より         
          SB KEPS @ AMSAT  $ORB01277.N
          2Line Orbital Elements 01277.AMSAT

HR AMSAT ORBITAL ELEMENTS FOR AMATEUR SATELLITES IN NASA FORMAT
FROM WA5QGD FORT WORTH,TX October 4, 2001
SEND SUBSCRIBE/UNSUBSCRIBE TO majordomo@amsat.org ONLY
BID: ORB01277.N

 DECODE 2-LINE ELSETS WITH THE FOLLOWING KEY:
 1 AAAAAU 00  0  0 BBBBB.BBBBBBBB  .CCCCCCCC  00000-0  00000-0 0  DDDZ
 2 AAAAA EEE.EEEE FFF.FFFF GGGGGGG HHH.HHHH III.IIII JJ.JJJJJJJJKKKKKZ
 KEY: A-CATALOGNUM B-EPOCHTIME C-DECAY D-ELSETNUM E-INCLINATION F-RAAN
 G-ECCENTRICITY H-ARGPERIGEE I-MNANOM J-MNMOTION K-ORBITNUM Z-CHECKSUM

FO-29
1 24278U 96046B   01275.66636033  .00000062  00000-0  96518-4 0 04565
2 24278 098.5272 126.2245 0351853 083.3055 280.7989 13.52784296253177

 ■ 軌道要素2:「jamsat−keps:1040」より
        SB KEPS @ AMSAT  $ORB01277.O
        Orbital Elements  01277.OSCAR

HR AMSAT ORBITAL ELEMENTS FOR OSCAR SATELLITES
FROM WA5QGD FORT WORTH,TX October 4, 2001
SEND SUBSCRIBE/UNSUBSCRIBE TO majordomo@amsat.org ONLY
BID: ORB01277.O
TO ALL RADIO AMATEURS BT
 
Satellite: FO-29
Catalog number: 24278
Epoch time:      01275.66636033
Element set:    0456
Inclination:      098.5272 deg
RA of node:       126.2245 deg
Eccentricity:    0.0351853
Arg of perigee:   083.3055 deg
Mean anomaly:     280.7989 deg
Mean motion:   13.52784296 rev/day
Decay rate:        6.2e-07 rev/day^2
Epoch rev:           25317
Checksum:              328

-------------------  FO-29(JAS-2)のテレメトリに関する情報  ---------------------- 
 
2)上記10月6日(土)のテレメトリの最終行を分析しておきます.

AS25369C1   06OCT2001
18:22-18:32(JST)
FREQ. 435.802-.790MHz
HI HI AE 07 88 55 00 D4 A5 CC 09 42 59 87 1D 8B 8A 8E 98 73 91 8F 8D 8E 8B 

テレメトリ   内 容         換算算値 単 位
3C	磁気センサーZ軸=	43627.4	[nT]
3D	磁気センサX軸	=	66176.5	[nT]
4A	太陽電池発生電流=	 284.3	[mA]
4B	B充放電電流	=	  724.4	[mA]
4C	B端子電圧	=	   14.9	[V]
4D	B中間端子電圧	=	    6.8	[V]
5A	バス電圧	=	   14.9	[V]
5B	JTA送信電力	=	  649.4	[mW]
5C 	構体温度1	=	   25.6	[℃]
5D	構体温度2	=	   26.3	[℃]
6A	構体温度3	=	   27.1	[℃]
6B	構体温度4	=	   26.7	[℃]
6C	Bセル温度	=	   27.9	[℃]

 ========================== FO-29(ふじ3号)のQSO情報等 ======================
   
 3)[jamsat-bb:

 ===============================================================================
   4)JARL のホームページに運用予定が記載されていましたのでご紹介します.
       ( http://www.jarl.or.jp/Japanese/3_Fuji/new/uy.htm )

        ■ ふじ3号/FOー29/JAS-2 ■  
   
     *** 運用予定について ***

 7月2日(月) 〜 10月1日(月)アナログ系運用 


  *なお,運用予定は都合により変更することがありますので予めご了承願います。

 照会先 : lab@jarl.or.jp

 最新の情報はテレホンサービス(03−3942−1000)をお聞きください。  
 以後の運用につきましては平成13年10月上旬にお知らせ致します。
    
-----------------------    FO−20(JAS-1b)道要素   -------------------------
  5)
  ■ 軌道要素1 :出典はFO-29「ふじ3号」に同じ.
  
FO-20
1 20480U 90013C   01250.65657922  .00000011  00000-0  89059-4 0  3392
2 20480  99.0523 303.6413 0540659 122.4094 243.0493 12.83296964542674
 
  ■ 軌道要素2 :出典はFO−29「ふじ3号」に同じ.
               
Satellite: FO-20
Catalog number: 20480
Epoch time:      01276.22830360
Element set:     345
Inclination:       99.0497 deg
RA of node:       324.4079 deg
Eccentricity:    0.0540834
Arg of perigee:    64.5557 deg
Mean anomaly:     301.0486 deg
Mean motion:   12.83297914 rev/day
Decay rate:       -9.0e-08 rev/day^2
Epoch rev:           54595
Checksum:              309

 --------------------------------------------------------------------------------
 
         ■ ふじ2号/FO−20/JAS-1b ■      
            
          「ふじ2号」 現況                                                                                  
             
   JAS-1b(ふじ2号)のCWテレメトリ信号に,1997年10月12日12時(JST)の
 日本上空通過時,3桁の数字が繰り返されるはずが3個の長音の繰り返しとなっているという
 異常が発見されました。この不具合は次の通過時からは回復していましたが13日15時20分の
 通過時に再び観測されました。現在はA0の送信が続いています。衛星のアナログ系中継モード
 動作は異常が無く,正常時のテレメトリ内容からは衛星の動作に異常は認められません。従って,
 直ちに衛星のミッションに影響することは無いと予想されますので,当面はアナログ系中継
 モードを継続します。衛星は既に打ち上げてから7年8ヶ月を経ておりますので,今後は監視を
 強化する予定です。アマチュア各位のレポートをお待ちします。
 -------------------------------------------------------------------------------- 
  1997年10月14日 00時35分 確認のテレメトリ音 151 KB (A0) 
  1997年10月14日 11時10分 確認のテレメトリ音 216 KB (異常キーイング) 

  以上 JARLのホ−ムページの http://www.jarl.or.jp/Japanese/3_Fuji/new/fuji.htm

===================== FO-20 ふじ2号 のテレメトリ観測結果 ====================

  7月19日(木)19:45(JST)の観測結果では以前観測した単一周波数の
ドップラー効果で周波数がずれていくのみの状態でした。
                                         
   =============   JAS-2 (ふじ3号)と現在までの情報   ===========
  
  A.電話によるふじ3号の運用情報
      社団法人日本アマチュア連盟によるサービス
           TEL .   03− 3942 − 1000
  B.アマチュア無線FAXサービス
      JARLによるふじ3号の軌道情報(オービットカレンダー)
         FAX No.  03− 3233 −0055
  C.WWWブラウザで情報を簡単に見れる人のためにJAS−2
     ふじ3号の衛星としての運用されるまでの名前)の概要、打ち上げ
     までの状況、運用中における状況を説明したホームページを紹介し
     ておきます.
     社団法人日本アマチュア無線連盟(JARL)のホームページ

          http://www.jarl.or.jp/Japanese/3_Fuji/jasmenu.htm
 
     宇宙開発事業団(NASDA)ホームページ 
          http://www.nasda.go.jp/
         打上げ衛星 :地球観測プラットフォーム技術衛星(ADEOS) 
                       アマチュア衛星3号(JAS-2)
          http://spaceboy.nasda.go.jp/note/eisei/j/Eis15h_j.html#Eis15h_01_j
     http://spaceboy.nasda.go.jp/note/eisei/j/Eis15i_j.html        

  D.JAMSATによる軌道情報の活用
        JAMSATのホームページまたはjamsat−kepsの軌道要素より
      衛星の軌道情報を得る.
     JAMSATホームページ
               URL    http://www.jamsat.or.jp
       上記ホームページでは各地で行われるアマチュア通信衛星に関する
      ミューティングのお知らせや世界のアマチュア衛星に関する情報が
      満載されています.
 ========================================================================  
     JAMSATのメンバーのご協力によりJH6MME(高山 秀造)が
    執筆・編集を担当しております.ご指摘の意見、疑問やこのようにしたら
    というアイデアがありましたら小さなことでもかまいませんので気軽に下
    記アドレスまでご連絡ください.jamsat−newsからjas2
    infoへの転載をJH4PHW局坂井さんに担当して頂いております.  
                  E-mail : jh6mme@jamsat.or.jp : jh4phw@jamsat.or.jp
 ===============================   END  ===============================